Wind_Speed
14 13 13 12 13 14 13 15 19 22 25 27 29 31 33 33 34 33 34 35 36 36 36 36 35 35 35 34 33 30 28 27 26 25 23 21 19 19 18 17 17 17 16 14 12 11 11 11 10 8 7 8 8 7 7 7 7 7 6 5 5 6 6
13 13 13 13 13 14 14 16 20 22 24 27 29 31 33 34 35 35 35 36 37 37 37 36 36 36 36 35 33 31 29 27 26 25 22 21 20 19 18 17 16 16 15 13 12 12 12 12 11 9 9 8 8 8 8 7 7 7 7 6 6 7 8
13 13 13 14 14 15 14 15 19 23 26 27 28 30 33 36 38 39 38 38 38 37 36 36 37 36 36 35 33 32 30 29 27 25 23 22 20 19 17 16 16 16 14 13 12 12 12 12 11 10 9 9 9 10 9 8 8 8 8 8 9 9 10
14 15 15 15 15 14 13 14 19 24 27 29 32 35 37 39 40 41 40 39 39 38 38 38 38 37 36 36 35 34 32 30 28 25 23 22 21 19 17 17 16 15 14 13 12 13 13 12 12 10 10 10 10 10 10 10 10 10 10 10 10 10 11
14 14 13 13 13 12 11 13 19 24 27 30 33 35 37 38 37 37 38 39 39 40 40 39 37 36 36 37 36 35 32 31 28 25 23 23 21 19 18 18 17 16 15 14 14 14 14 14 13 12 10 10 9 9 9 10 11 12 11 11 11 11 12
13 13 12 12 12 12 12 14 20 27 29 32 34 36 36 35 34 35 36 36 37 38 36 35 35 35 36 37 36 34 32 30 28 26 24 23 21 20 19 19 18 17 16 15 15 15 15 15 14 13 11 10 9 9 9 10 10 11 11 12 12 13 13
13 13 13 13 13 13 13 14 20 27 30 32 33 33 32 32 32 33 33 34 36 35 34 34 35 36 35 35 33 32 32 31 28 27 26 24 22 21 19 19 19 18 16 16 16 16 17 16 15 14 12 11 11 11 11 12 12 11 11 12 12 13 13
15 13 13 14 13 14 13 13 18 24 27 28 27 28 29 30 31 31 32 35 35 34 34 35 36 35 32 31 29 27 29 30 29 28 27 25 24 21 20 20 20 18 17 17 17 17 18 17 15 14 14 13 13 13 14 15 15 14 14 14 13 13 14
14 14 15 15 14 13 12 13 18 22 24 26 27 29 31 31 32 33 35 36 34 34 35 35 34 31 30 31 30 29 30 31 30 29 28 26 25 22 20 20 20 19 19 18 17 18 18 17 16 16 16 16 16 16 17 17 17 17 17 17 17 16 16
13 14 15 14 12 11 10 11 13 16 19 23 26 28 30 31 32 33 34 34 33 35 35 33 30 29 32 35 35 34 34 33 31 30 29 27 25 23 21 20 20 20 19 19 19 19 19 17 17 18 18 18 18 19 19 19 19 18 18 18 19 19 18
13 14 13 12 11 10 9 9 10 12 17 22 26 28 30 31 32 33 34 35 35 34 32 30 29 33 37 38 35 35 35 34 32 31 30 28 26 24 22 21 21 21 20 20 20 20 18 17 18 19 20 20 20 20 19 18 17 16 15 14 15 16 17
12 13 12 12 12 10 10 11 12 13 17 23 26 28 29 30 32 33 33 35 35 31 29 29 32 36 38 37 36 36 36 34 33 31 30 30 28 25 23 22 21 21 21 22 21 20 18 17 18 20 20 20 19 18 17 15 13 12 11 11 12 13 15
12 11 11 12 12 11 11 12 13 14 17 22 26 27 29 30 32 33 33 33 31 28 28 31 34 37 40 42 40 35 32 32 33 33 32 31 29 26 24 22 22 21 22 22 21 19 18 18 19 19 19 18 16 16 15 14 12 11 11 12 12 13 14
10 9 10 11 11 11 12 12 13 13 15 20 24 25 26 28 30 32 30 28 26 26 29 33 35 38 43 41 33 27 29 33 33 33 33 31 28 26 24 24 22 21 21 22 21 20 20 19 19 19 17 16 15 15 15 13 12 12 12 13 14 14 15
10 11 12 12 11 10 10 11 12 12 14 18 22 23 24 26 28 27 24 23 26 29 33 36 39 41 41 36 30 29 35 39 36 33 32 30 28 26 25 25 22 21 23 25 24 23 21 20 20 18 16 15 14 15 15 14 14 14 14 14 15 15 15
12 13 12 11 10 10 11 12 12 12 12 15 19 22 24 25 25 24 24 26 30 32 36 40 41 41 40 38 38 39 39 36 32 30 30 29 27 26 27 26 23 23 27 29 27 24 23 22 21 19 16 14 13 13 13 13 14 14 14 15 16 16 16
13 12 10 10 10 10 10 10 10 9 10 13 18 22 23 23 23 24 26 29 33 36 39 40 40 40 41 40 39 35 29 25 23 24 27 28 27 26 26 25 26 29 31 30 27 25 24 23 22 20 17 14 13 13 13 13 13 13 15 16 16 17 17
11 10 9 9 9 9 9 9 8 8 8 11 16 19 21 21 21 25 28 32 35 37 39 40 39 37 32 27 23 19 20 22 24 24 25 26 25 23 22 25 31 34 32 30 27 25 24 24 23 21 18 16 16 16 16 16 15 15 15 16 16 17 17
9 9 8 8 8 8 8 7 6 7 9 12 16 19 20 22 24 28 32 34 35 35 36 35 29 22 18 17 18 19 24 31 31 26 25 25 22 21 22 28 36 36 33 30 27 24 24 24 24 22 19 18 18 18 18 18 17 17 17 17 16 16 16
8 7 6 6 7 7 6 6 6 9 13 16 18 19 20 23 27 29 30 31 30 30 30 26 22 21 23 26 28 29 33 36 34 30 30 27 24 24 26 31 36 36 32 29 25 23 23 24 24 23 21 20 19 19 19 19 18 18 17 17 17 15 15
6 6 6 6 6 6 7 6 7 10 14 16 17 18 20 24 27 27 27 28 27 27 27 27 28 31 34 37 39 39 38 36 34 34 33 29 28 29 30 33 36 34 30 27 25 23 24 24 24 23 21 20 20 19 20 20 19 17 17 16 16 14 14
7 8 8 7 7 8 8 8 8 10 11 12 14 18 22 26 28 27 27 27 26 28 31 32 33 35 36 39 40 40 40 37 32 31 32 31 31 32 32 33 34 32 29 26 24 23 23 24 23 22 21 20 20 21 21 20 19 18 17 16 14 14 15
9 9 8 8 8 8 9 10 10 10 10 11 15 20 23 26 28 28 27 27 28 30 33 33 33 34 35 37 37 39 40 37 31 32 34 33 32 32 33 31 31 31 28 24 23 23 23 23 23 21 21 21 22 22 21 20 19 17 16 15 14 15 16
6 6 5 5 6 6 8 10 10 9 9 11 15 18 21 25 28 27 26 26 28 29 30 30 31 33 34 36 37 39 39 38 37 39 38 35 34 34 32 29 29 28 25 22 23 24 25 25 23 22 22 22 20 19 18 18 17 16 15 14 14 15 16
4 3 3 3 5 8 9 9 8 7 8 11 13 15 19 23 25 25 23 24 25 26 27 30 33 32 32 34 36 37 37 37 40 41 39 37 36 33 29 27 26 26 24 22 24 25 25 24 22 21 20 18 16 15 16 17 16 14 14 14 14 15 16
5 5 5 5 6 9 10 10 10 10 11 13 15 16 19 22 24 25 25 26 27 29 32 34 32 26 24 27 32 35 35 37 40 41 38 37 34 28 25 24 24 24 23 22 24 24 23 21 19 19 18 15 13 12 13 15 14 13 13 14 15 15 15
6 7 7 8 10 11 12 10 10 12 14 15 16 18 21 24 26 26 27 28 29 29 29 26 20 20 25 30 33 33 33 35 38 38 36 33 28 23 22 23 24 24 23 22 22 22 21 19 19 19 18 15 14 12 11 12 14 13 13 14 14 13 13
7 8 7 7 9 11 12 10 9 11 13 15 17 20 23 26 26 24 23 24 23 21 19 16 17 24 29 30 29 29 31 33 34 32 29 26 23 21 22 23 24 23 21 21 21 21 20 19 18 17 16 15 15 14 11 12 14 14 13 13 12 12 12
5 5 4 4 5 8 10 11 10 11 13 16 18 21 24 25 23 20 19 18 15 14 15 16 21 26 27 25 24 26 28 30 29 26 22 20 20 22 23 24 23 21 19 19 20 20 19 18 17 15 14 14 16 15 12 12 13 13 13 12 12 13 13
4 3 2 1 2 4 7 9 10 10 12 15 18 20 22 23 21 18 15 12 12 14 16 17 21 26 27 28 28 25 23 24 24 20 18 19 21 23 24 24 24 22 19 19 19 18 18 17 16 14 12 14 17 15 11 11 12 12 13 13 13 13 13
5 5 5 5 5 4 4 6 9 10 11 13 16 19 21 22 20 16 12 11 13 16 17 17 21 25 27 29 27 22 19 20 20 18 19 21 23 25 25 25 24 22 20 19 19 18 17 16 14 13 13 15 16 13 9 10 12 13 13 12 11 11 12
4 4 3 3 4 4 4 7 9 11 11 13 16 19 20 20 17 14 11 11 13 16 16 17 20 23 24 25 23 20 19 20 19 19 20 22 24 25 26 25 23 21 20 19 18 17 16 14 13 14 15 15 13 10 9 11 12 12 11 10 9 9 10
2 2 2 1 3 5 9 11 11 11 12 14 17 19 19 17 14 12 11 10 10 12 15 18 19 19 18 18 19 20 21 22 21 20 20 21 23 23 23 23 22 20 20 19 18 17 15 14 14 14 14 12 11 10 10 11 11 11 9 8 8 9 10
1 1 2 4 7 9 12 13 12 13 14 15 17 19 17 15 14 12 9 7 9 13 17 20 19 16 13 14 17 20 22 23 23 22 22 21 20 20 20 20 20 20 20 19 18 17 16 15 14 13 11 11 11 10 10 10 10 10 9 9 9 10 11
4 5 7 8 10 11 12 12 13 14 14 14 15 16 15 15 14 11 8 9 13 17 19 20 19 18 16 16 19 20 22 23 23 22 21 20 19 19 18 17 17 18 17 16 16 15 14 13 11 10 9 9 8 8 9 9 10 10 10 10 10 10 11
7 8 8 8 9 10 10 11 12 13 13 12 13 15 15 14 14 12 13 16 18 20 21 22 22 21 19 18 19 19 20 21 21 21 21 21 21 19 17 15 15 15 14 13 13 12 11 10 9 8 8 7 6 6 7 8 9 9 9 9 9 10 9
8 8 7 7 9 10 10 10 11 12 12 12 13 15 15 15 17 18 19 20 21 22 22 22 20 18 17 18 19 20 22 23 23 22 22 21 21 20 17 14 12 11 10 10 9 9 9 9 8 8 8 6 6 6 6 6 6 7 7 7 8 8 7
7 7 7 8 9 10 11 12 13 13 13 13 14 15 16 18 21 23 23 23 22 20 18 16 14 14 17 20 22 23 23 24 23 22 21 20 19 18 16 15 13 11 10 8 8 8 8 8 8 8 7 6 6 6 5 5 5 5 6 6 6 5 5
Wind_Direction
191 192 193 193 196 197 198 194 191 191 190 191 193 193 194 196 198 199 202 203 205 207 208 207 208 209 210 212 214 215 215 213 211 211 211 213 214 213 210 208 207 206 207 211 214 213 209 204 206 219 233 235 235 238 252 258 249 246 259 269 263 262 267
191 195 194 192 197 200 200 195 192 192 192 194 195 195 195 196 197 199 202 204 206 208 208 207 208 209 210 211 213 213 212 211 210 211 212 211 211 212 213 213 212 210 212 218 221 217 214 213 215 221 225 226 228 237 252 251 241 244 250 253 256 258 262
193 197 194 194 199 199 197 192 192 194 195 196 196 197 199 199 199 200 201 203 205 207 208 208 208 208 209 209 210 211 210 210 209 211 213 210 208 211 215 217 216 214 217 220 218 213 209 208 210 214 219 224 230 239 244 239 236 242 246 251 256 257 259
194 197 196 198 200 197 194 191 193 195 196 197 198 199 201 202 202 202 202 202 203 205 206 208 208 207 207 208 209 210 209 209 210 212 212 210 209 211 213 214 212 213 216 213 208 204 203 204 210 215 219 225 231 234 235 234 235 240 243 247 250 253 257
193 196 197 200 199 197 195 193 195 196 198 201 201 202 204 205 203 202 203 204 204 205 207 207 206 204 205 207 208 208 208 209 210 211 211 209 209 211 211 210 209 211 212 207 203 205 206 210 215 218 219 222 224 223 227 231 234 237 240 242 246 252 256
191 194 195 199 198 198 197 195 197 197 199 201 202 204 206 205 204 203 204 205 206 207 206 205 204 203 204 205 206 207 207 209 210 210 209 209 210 211 209 208 208 211 210 206 207 213 215 216 218 221 223 224 224 224 229 233 234 237 240 244 251 256 258
191 194 195 199 199 199 198 197 198 199 202 203 203 205 205 204 204 205 205 206 206 206 204 203 203 203 203 202 202 204 206 208 210 209 209 210 211 210 208 206 208 213 214 213 216 221 221 221 221 225 230 231 233 236 241 243 243 244 246 249 254 257 258
192 192 196 200 199 198 198 197 198 199 202 203 204 205 204 204 205 205 206 208 207 205 203 203 202 201 198 195 196 205 210 211 210 210 209 209 211 210 207 206 208 212 216 218 222 224 226 227 229 232 237 238 242 246 250 254 255 254 252 253 256 257 257
192 195 200 201 197 197 198 196 196 196 198 201 203 204 204 204 204 205 207 208 206 205 204 203 200 195 190 189 195 207 214 215 213 212 211 211 211 211 208 208 210 212 217 221 224 224 227 233 237 238 242 245 248 253 257 260 261 260 259 258 258 259 259
194 199 205 203 198 198 196 189 189 191 196 201 203 204 204 203 204 206 207 207 206 206 205 200 193 186 186 192 199 205 211 214 214 213 212 213 214 213 212 212 212 214 219 225 227 225 225 230 237 241 245 248 250 254 258 261 262 263 264 262 261 262 262
196 200 204 202 198 195 185 177 183 191 198 201 203 204 203 203 204 205 206 206 206 207 202 192 187 185 188 193 197 201 206 211 213 214 213 214 215 215 215 215 216 218 222 224 224 225 227 232 239 245 247 248 251 254 258 261 262 261 262 265 266 266 265
195 197 199 200 196 191 184 185 192 196 200 203 204 204 202 202 204 205 206 207 206 203 194 186 187 187 187 192 197 201 206 207 210 213 214 215 216 216 217 219 220 222 222 221 220 224 231 238 244 247 246 246 248 253 256 259 258 257 263 272 272 268 266
194 194 196 198 197 194 191 194 199 199 202 205 206 206 203 203 204 204 205 206 203 197 187 184 185 185 187 194 198 201 203 203 209 213 214 215 216 216 219 222 223 222 221 222 222 227 233 239 243 244 242 242 245 248 253 255 253 258 273 281 278 274 271
190 192 199 201 200 199 197 199 203 203 205 207 208 208 205 205 206 206 205 201 194 187 183 183 184 186 190 192 192 196 201 202 208 215 216 216 216 217 220 222 223 221 222 226 229 231 236 240 242 240 236 239 245 248 250 251 251 261 275 280 280 279 277
189 197 203 203 202 202 201 205 207 205 206 207 207 206 205 206 208 204 198 191 186 184 184 185 187 189 190 187 185 198 205 203 206 213 215 215 216 218 221 222 222 220 223 229 233 235 241 244 239 233 232 239 245 247 247 249 254 262 270 273 275 277 278
196 202 202 201 201 203 206 210 211 208 207 206 205 203 203 205 204 196 189 185 184 185 187 189 189 188 186 185 191 201 203 201 206 211 211 213 217 220 221 222 220 220 224 229 232 238 244 242 232 228 232 240 243 245 249 254 259 263 265 267 271 275 278
200 201 199 201 204 206 212 216 215 213 210 208 208 205 203 203 197 190 186 184 186 189 190 190 190 189 188 189 194 198 192 193 212 219 213 213 219 223 226 228 226 224 227 230 232 239 243 237 229 230 237 244 248 250 255 259 261 262 264 267 272 276 279
195 196 197 201 207 210 217 220 215 214 215 214 211 208 205 199 188 184 187 188 191 192 191 191 191 191 189 185 183 179 174 191 218 228 220 216 220 222 227 237 238 234 233 233 234 238 240 234 230 235 243 250 253 255 258 262 264 265 268 272 276 278 280
186 192 194 196 207 213 216 216 209 208 215 217 214 211 206 196 187 189 193 194 194 191 189 190 187 178 169 163 165 171 181 197 212 220 219 217 217 217 220 234 244 243 238 236 236 238 239 234 233 239 246 249 252 256 262 267 270 273 274 274 278 280 279
180 182 189 198 207 210 208 202 198 206 213 216 216 212 205 198 195 197 197 195 193 188 183 178 169 161 160 166 178 187 191 198 206 208 211 212 213 217 223 233 244 246 241 239 238 238 237 233 235 242 247 248 253 261 268 272 275 281 283 280 280 281 278
183 178 188 200 204 208 212 202 196 204 210 213 211 204 199 198 197 197 196 194 189 181 175 172 172 175 175 177 186 192 193 198 204 202 202 205 209 217 227 234 241 244 243 241 238 237 236 235 239 245 248 252 259 265 270 274 276 284 290 289 285 282 280
185 185 190 193 193 200 205 202 205 214 214 208 200 196 196 195 194 193 191 189 184 178 178 179 180 182 182 182 186 191 192 198 202 198 199 204 210 218 229 236 241 244 242 241 240 238 238 238 242 248 252 257 263 265 268 273 277 284 292 292 284 280 282
177 180 187 187 188 198 205 211 220 227 222 206 197 197 196 193 191 188 183 182 182 182 183 184 185 186 186 181 182 189 193 193 192 193 200 208 214 221 231 239 243 242 239 239 240 238 237 239 244 250 255 260 263 264 269 275 281 287 289 284 278 279 283
181 176 182 186 194 208 216 219 222 224 216 204 199 199 195 189 186 181 177 180 183 183 186 189 190 190 186 179 180 190 194 190 189 193 200 210 218 223 231 240 244 241 239 240 240 238 238 241 245 251 256 259 263 267 273 279 284 285 283 279 278 280 281
154 131 139 179 200 203 198 193 189 187 189 192 194 194 190 185 179 174 174 180 182 184 191 196 197 193 183 176 181 194 197 192 191 196 200 209 219 225 231 240 245 243 241 241 240 240 240 242 245 249 251 254 262 269 274 278 281 283 283 282 280 279 279
128 124 129 139 158 169 165 158 156 159 171 185 190 189 185 179 173 173 178 181 183 191 199 202 198 185 171 173 186 198 200 194 193 198 203 211 219 227 233 242 245 243 241 241 239 239 240 238 238 239 238 242 254 264 269 275 281 282 280 278 275 274 274
95 103 116 130 140 146 146 147 157 166 176 188 188 185 183 178 175 180 183 184 189 199 203 201 186 167 169 183 193 201 203 197 195 200 206 212 221 229 237 244 245 241 239 238 237 236 235 234 233 230 230 240 259 268 269 274 279 278 272 269 269 268 265
62 70 84 115 137 144 141 138 149 162 174 186 187 186 185 182 181 185 186 187 196 200 195 186 175 173 179 186 194 203 206 200 198 204 208 213 221 228 237 243 241 236 233 232 230 230 229 228 228 228 233 249 261 263 264 270 274 272 265 263 262 258 254
51 63 87 124 145 155 149 142 149 163 175 183 187 189 188 185 184 186 186 188 193 186 177 178 176 173 175 181 192 206 210 205 203 207 211 216 225 233 237 238 234 229 228 226 224 222 220 220 225 234 249 258 256 255 263 269 266 262 260 257 253 249 248
39 35 13 19 74 134 147 148 155 167 176 182 186 189 189 188 187 184 180 178 176 174 175 175 171 170 175 183 191 204 216 215 212 217 224 230 238 239 236 232 228 227 228 225 220 217 218 224 232 239 247 250 252 259 267 261 252 251 252 249 244 243 246
17 9 355 3 33 71 132 156 160 162 169 181 189 190 191 192 188 176 168 168 173 178 181 176 175 180 187 189 191 204 224 227 223 229 239 243 244 239 231 226 224 222 220 218 216 218 223 228 235 239 239 244 255 266 263 246 241 241 242 240 238 241 246
9 9 13 38 69 94 130 149 156 161 169 183 193 193 193 194 185 168 164 174 179 183 187 185 186 191 193 192 195 210 227 229 227 232 241 244 240 233 227 224 222 217 214 214 214 217 223 228 232 237 240 245 256 259 244 233 232 232 233 236 239 246 252
346 358 14 81 126 149 154 155 160 171 179 188 196 196 193 189 181 170 171 181 189 193 197 196 196 196 193 192 199 213 224 228 230 233 236 234 227 222 222 223 224 220 217 216 216 218 226 232 231 229 232 240 248 244 229 222 223 226 234 242 247 255 260
297 283 223 202 190 179 171 169 173 183 190 195 197 195 191 187 185 182 176 183 196 195 193 193 191 186 186 194 204 214 223 229 231 229 223 216 211 211 214 217 219 219 218 219 222 226 231 231 227 226 233 240 240 231 218 215 219 226 236 244 251 258 262
236 218 209 204 199 193 187 185 187 191 199 203 195 188 186 189 190 187 181 187 190 183 179 180 178 174 180 198 209 217 223 225 224 218 208 201 197 198 200 201 205 210 214 220 226 228 230 231 229 231 234 230 225 222 218 221 229 235 240 245 252 260 265
215 210 204 197 198 201 199 196 197 199 202 202 192 183 185 189 189 187 187 188 183 172 165 168 170 169 178 196 211 218 218 214 211 206 200 195 191 187 185 189 197 204 212 219 221 220 222 223 220 215 213 210 213 224 233 238 240 241 243 249 256 265 269
209 208 202 191 188 194 196 195 199 201 199 195 190 186 187 187 184 183 182 179 175 168 161 160 163 166 176 195 211 216 210 204 201 197 193 190 188 187 183 181 184 191 197 203 205 206 208 206 201 199 204 213 220 224 228 233 232 234 242 252 261 269 266
236 223 210 199 193 194 193 193 199 204 201 195 192 193 192 187 183 180 176 169 167 165 158 157 168 180 188 196 205 206 200 196 193 191 187 184 185 187 185 179 170 163 166 175 184 189 193 194 194 195 197 204 212 212 208 206 216 237 255 264 270 268 251
Height
737 740 742 744 747 748 749 750 752 755 758 760 762 764 767 769 771 774 775 776 778 780 782 785 787 790 792 794 796 798 800 802 804 805 807 808 809 810 811 812 813 813 814 815 816 817 818 818 819 819 819 820 820 820 821 821 821 821 821 821 821 821 821
736 738 739 741 743 744 744 747 750 753 755 757 759 761 763 765 767 769 771 773 775 777 779 782 784 787 789 792 794 796 799 800 802 804 805 806 807 809 810 811 812 813 814 814 815 816 817 817 817 818 818 818 819 819 819 820 820 820 820 820 820 820 820
733 734 735 736 737 738 741 744 747 749 752 754 756 759 759 760 762 763 766 769 771 774 777 780 782 784 787 790 792 794 796 798 800 802 803 804 806 807 809 810 811 812 813 814 815 815 816 816 816 817 817 817 817 817 818 818 818 819 819 819 819 819 819
728 728 729 731 732 734 737 740 743 745 748 750 751 753 754 755 757 759 762 765 767 770 773 775 778 781 784 787 789 791 793 796 798 799 801 803 804 806 807 809 810 811 812 812 814 814 815 816 815 815 815 815 816 816 816 816 817 817 818 817 817 817 817
725 725 727 729 730 734 735 736 739 742 744 746 748 750 751 753 756 758 761 762 764 767 769 772 776 779 782 784 786 789 791 794 796 798 800 801 803 804 805 807 808 809 811 811 812 813 813 814 814 814 814 814 814 814 815 815 815 816 816 816 816 816 816
722 723 725 727 728 730 731 732 735 737 740 742 743 746 748 751 755 757 759 761 762 765 768 772 775 777 779 782 785 788 791 793 795 797 799 800 801 802 803 805 807 808 810 810 811 812 812 812 812 812 813 813 813 813 813 814 814 814 815 814 814 814 814
717 719 721 722 723 725 726 728 731 733 736 738 740 743 746 750 753 755 757 759 760 763 766 769 771 774 777 780 784 788 790 792 794 795 797 798 799 801 802 804 806 807 809 810 810 811 811 811 811 811 811 812 812 812 812 812 813 813 813 813 813 813 813
712 714 716 717 718 720 722 724 727 730 733 737 740 743 745 748 750 753 755 756 757 761 763 765 768 772 775 780 785 789 791 792 793 794 795 796 798 799 800 802 804 805 807 808 808 809 810 810 810 810 810 810 810 810 810 811 811 811 811 811 811 811 811
708 710 710 711 713 715 718 719 723 727 730 734 736 738 740 743 746 748 749 752 755 757 759 762 766 770 774 778 781 784 788 790 791 792 793 795 796 798 799 800 801 803 804 805 805 806 807 808 808 808 808 808 808 808 808 809 809 809 809 809 809 809 809
706 707 706 708 710 712 715 718 722 726 728 730 732 734 737 739 742 744 746 749 751 753 756 760 765 768 770 773 774 776 781 786 788 790 792 793 795 796 797 798 799 800 801 802 803 803 804 805 806 807 806 806 806 806 806 807 807 807 807 807 807 807 807
703 704 705 707 710 712 715 718 721 723 723 725 727 729 732 734 737 739 741 744 746 749 754 758 761 763 765 768 771 774 778 782 785 787 789 791 793 794 795 797 798 799 799 800 801 802 802 803 803 804 804 803 803 804 804 804 805 805 805 805 805 805 805
700 702 704 707 709 711 714 715 716 717 718 720 721 724 727 730 732 735 737 740 743 747 752 755 757 758 761 764 767 769 773 778 781 784 786 788 789 791 794 795 795 796 797 797 798 799 800 800 801 801 801 801 801 802 802 803 803 803 803 803 804 804 804
698 700 702 704 706 708 710 711 712 713 715 716 718 721 724 726 728 731 734 737 741 746 749 751 753 755 757 758 759 765 771 775 778 780 781 784 787 789 791 792 793 794 795 796 796 797 797 798 799 799 799 799 800 800 801 801 801 801 801 802 802 802 802
699 701 702 702 704 706 708 710 710 711 712 714 716 719 722 725 726 728 732 736 741 744 745 747 749 751 752 754 760 767 770 770 772 775 778 781 784 787 789 790 791 792 794 795 795 795 796 796 797 798 798 798 799 799 799 799 799 799 800 800 800 800 800
701 701 701 702 704 706 707 709 708 709 710 711 714 717 720 723 725 728 732 736 738 740 741 743 744 746 749 754 759 763 762 762 764 770 776 780 782 785 787 788 790 791 792 793 792 793 794 795 796 797 797 798 798 798 798 798 797 797 798 798 798 799 798
699 699 700 701 703 704 705 706 705 706 707 709 711 715 717 719 722 726 730 732 734 736 737 738 740 743 746 748 749 750 754 762 767 770 774 778 781 783 785 787 789 790 790 789 789 790 792 794 795 796 796 796 796 796 795 795 795 795 795 796 796 796 796
697 698 699 700 701 702 702 703 705 706 707 708 709 711 714 717 720 724 727 728 730 731 732 735 737 740 743 744 746 751 760 772 778 777 776 778 780 782 785 788 789 786 786 787 787 788 790 792 794 794 795 794 794 793 793 792 792 792 792 793 793 793 793
696 697 698 699 700 701 702 703 704 706 706 707 708 710 713 716 719 722 723 725 726 727 730 733 736 741 745 749 755 763 771 780 783 781 780 779 780 783 785 789 788 785 784 784 785 786 788 790 792 792 792 792 791 790 790 789 789 789 790 790 790 790 790
694 695 696 697 699 699 701 702 703 705 705 706 708 709 712 714 717 718 719 721 723 725 729 734 739 746 750 754 760 765 768 773 775 777 779 778 778 781 781 784 785 784 783 783 783 785 786 788 789 790 790 789 788 788 787 786 787 787 787 787 787 787 787
692 693 694 696 697 697 699 700 701 702 703 704 705 707 710 713 715 717 719 721 724 727 731 736 741 743 745 748 753 756 758 762 764 766 769 771 775 777 777 778 780 780 781 781 781 782 784 785 786 786 787 786 786 785 785 784 784 784 784 784 783 784 784
690 692 693 694 695 696 696 697 698 699 700 701 703 705 708 711 712 715 718 720 724 727 730 733 734 734 735 737 740 744 749 754 756 757 761 766 771 773 773 774 775 776 778 778 778 779 781 782 783 783 784 783 783 783 782 782 783 782 781 781 781 782 782
687 689 690 690 691 692 692 694 695 696 697 699 701 703 705 707 710 713 716 719 722 724 726 727 728 729 729 730 733 738 743 749 755 759 762 766 768 769 770 770 771 773 775 775 775 777 779 780 781 781 781 781 781 780 780 780 780 780 779 779 779 780 780
682 685 685 686 688 689 690 692 693 694 696 698 699 701 702 704 707 710 713 717 719 720 722 723 724 724 725 727 732 738 741 746 753 757 761 764 765 766 767 767 769 771 771 772 773 775 776 777 778 778 778 778 778 778 778 778 778 778 777 777 778 778 778
680 682 684 685 687 689 690 692 694 695 697 698 700 701 701 703 705 708 712 715 716 718 720 720 720 720 721 724 730 737 741 743 747 750 755 760 762 762 763 765 768 769 768 769 771 772 773 774 774 775 776 776 776 777 777 776 776 776 776 776 776 776 776
682 684 686 687 688 689 690 692 694 696 698 700 701 702 702 703 705 708 712 714 716 718 718 717 716 717 721 727 735 741 743 742 743 747 750 755 757 759 760 762 765 766 765 766 768 769 770 771 771 772 773 774 775 775 775 775 774 774 774 774 774 774 774
684 685 687 688 689 690 691 693 694 696 698 699 701 702 703 704 705 707 709 710 713 713 711 711 714 720 729 737 743 746 746 743 742 745 747 751 754 757 758 760 762 763 763 764 766 767 768 768 768 769 770 771 771 771 772 772 772 772 773 772 772 772 772
685 685 687 689 689 690 692 694 695 696 697 698 700 702 703 703 703 704 705 707 709 708 709 714 720 725 732 737 740 745 747 744 742 743 746 749 752 755 756 758 759 760 760 761 763 765 765 766 766 767 767 768 769 769 769 770 770 771 771 771 771 771 770
687 688 690 690 691 692 694 695 696 697 697 699 700 701 702 702 702 702 705 707 708 710 713 718 722 724 728 732 737 743 745 743 741 742 745 748 751 752 753 755 756 756 757 758 760 761 763 763 764 765 765 766 767 767 767 767 768 768 769 769 769 769 769
691 692 693 692 693 694 694 695 697 697 698 699 700 701 702 701 702 703 705 708 710 713 716 719 721 723 726 730 735 740 742 740 740 741 744 747 749 750 750 752 754 754 755 756 757 759 760 761 762 763 763 764 765 766 765 765 766 767 767 767 768 768 767
694 695 695 694 695 696 696 697 697 698 700 700 701 702 702 702 702 704 707 710 712 715 717 719 721 724 725 725 728 734 738 740 740 742 745 747 747 747 748 750 752 752 753 754 756 757 759 760 760 761 762 763 763 763 763 763 764 765 766 766 766 766 765
696 698 698 698 698 698 698 699 699 700 702 702 702 703 702 702 704 705 708 711 712 714 716 718 721 723 723 724 726 731 737 740 741 743 744 745 745 746 747 748 750 751 752 753 754 756 757 758 758 759 760 761 761 761 761 762 763 764 764 764 764 763 763
699 700 699 699 699 699 700 700 701 702 702 702 702 702 702 703 705 707 709 710 712 714 716 718 720 722 723 724 726 732 737 739 739 741 742 743 744 745 746 747 748 749 750 752 753 754 754 756 757 758 759 759 759 760 761 761 762 762 762 762 762 762 762
699 699 699 699 699 700 701 701 702 702 702 701 701 701 702 705 706 707 709 710 711 713 715 717 720 722 722 723 726 730 734 736 737 739 740 741 742 743 744 746 746 748 749 750 751 752 753 755 756 757 758 758 758 759 760 760 761 761 760 760 760 761 761
699 699 700 701 700 700 700 700 700 700 699 699 699 700 703 705 706 707 708 709 711 713 714 716 718 720 721 723 725 728 732 734 736 736 737 739 740 741 743 744 746 747 748 749 750 751 753 754 755 756 756 757 758 759 759 759 759 759 759 760 760 760 760
700 701 702 701 701 700 699 699 699 698 697 698 699 701 703 704 705 706 708 709 711 711 712 714 715 715 717 720 724 727 730 732 734 735 736 737 738 740 742 743 745 746 747 748 749 750 752 753 753 754 755 756 757 757 757 757 758 758 758 759 759 759 759
701 702 701 701 700 700 698 698 698 697 698 698 699 701 703 703 704 706 707 708 709 708 709 711 712 712 713 716 721 725 728 731 732 734 735 736 737 738 740 742 743 745 746 747 748 749 750 751 752 753 754 755 755 755 755 756 756 757 758 758 758 758 757
700 700 699 699 699 698 698 698 697 697 698 698 699 701 702 703 704 705 706 707 707 708 708 709 710 712 713 716 721 725 728 730 731 732 733 734 736 737 738 740 742 744 745 746 747 748 749 750 751 752 753 753 754 754 755 755 756 756 756 756 756 756 756
699 698 698 697 697 697 697 697 696 697 697 698 699 700 701 702 703 704 706 706 707 707 709 710 711 713 715 717 721 724 727 728 729 730 731 733 735 737 738 739 742 743 745 746 747 748 749 750 751 751 752 752 753 754 754 755 755 755 755 755 755 755 754